WZZ411 LQTZ-LZIB

Flight info

Callsign WZZ411
Flight time 0h 47m
Altitude 19000
Route VIBOP P10 ADULA/N0445F380 DCT BAREB/N0443F370 DCT JOZEP/N0444F380 DCT PUCOG DCT BODZA DCT XOMBA
Aircraft A321/M-SDE1E2E3FGIJ1J4RWXY/LB1

Departure

Time 2026-04-24 20:01
Airport Tuzla International Airport (LQTZ)

Arrival

Time 2026-04-24 20:49
Airport M. R. Štefánik Airport (LZIB)
Time Latitude Longitude Altitude Speed Heading
2026-04-24 19:38 44.46303 18.71045 780 ft 0 kts 60°
2026-04-24 19:54 44.46303 18.71046 780 ft 2 kts 60°
2026-04-24 19:55 44.46309 18.71052 780 ft 1 kts 26°
2026-04-24 19:55 44.46323 18.71044 780 ft 2 kts 322°
2026-04-24 19:55 44.46326 18.71017 780 ft 5 kts 266°
2026-04-24 19:55 44.46300 18.70972 780 ft 8 kts 204°
2026-04-24 19:56 44.46222 18.70949 780 ft 15 kts 187°
2026-04-24 19:56 44.46101 18.70925 779 ft 19 kts 188°
2026-04-24 19:56 44.46014 18.70974 779 ft 12 kts 121°
2026-04-24 19:56 44.45983 18.71067 779 ft 10 kts 105°
2026-04-24 19:57 44.45969 18.71176 778 ft 13 kts 100°
2026-04-24 19:57 44.45956 18.71305 779 ft 14 kts 96°
2026-04-24 19:57 44.45945 18.71440 782 ft 14 kts 96°
2026-04-24 19:57 44.45934 18.71582 783 ft 16 kts 96°
2026-04-24 19:58 44.45921 18.71750 784 ft 18 kts 96°
2026-04-24 19:58 44.45906 18.71945 788 ft 23 kts 96°
2026-04-24 19:58 44.45889 18.72171 786 ft 24 kts 96°
2026-04-24 19:58 44.45870 18.72411 786 ft 25 kts 96°
2026-04-24 19:59 44.45851 18.72663 788 ft 26 kts 96°
2026-04-24 19:59 44.45832 18.72921 788 ft 27 kts 97°
2026-04-24 19:59 44.45808 18.73186 791 ft 27 kts 96°
2026-04-24 19:59 44.45787 18.73454 790 ft 28 kts 96°
2026-04-24 20:00 44.45764 18.73722 793 ft 27 kts 96°
2026-04-24 20:00 44.45736 18.73931 792 ft 18 kts 103°
2026-04-24 20:00 44.45742 18.74039 793 ft 4 kts 332°
2026-04-24 20:00 44.45756 18.73862 792 ft 52 kts 275°
2026-04-24 20:01 44.45825 18.72971 788 ft 129 kts 276°
2026-04-24 20:01 44.45943 18.71488 1076 ft 161 kts 276°
2026-04-24 20:01 44.46056 18.69950 1940 ft 156 kts 275°
2026-04-24 20:01 44.46167 18.68423 2509 ft 164 kts 276°
2026-04-24 20:02 44.46251 18.67327 2715 ft 178 kts 276°
2026-04-24 20:02 44.46443 18.64846 3080 ft 208 kts 277°
2026-04-24 20:02 44.46641 18.62718 3315 ft 233 kts 284°
2026-04-24 20:02 44.47481 18.60686 3750 ft 252 kts 318°
2026-04-24 20:03 44.49055 18.59598 4568 ft 259 kts 351°
2026-04-24 20:03 44.50854 18.59834 5497 ft 261 kts 12°
2026-04-24 20:03 44.52608 18.60359 6495 ft 260 kts 11°
2026-04-24 20:03 44.54396 18.60828 7412 ft 261 kts
2026-04-24 20:04 44.56197 18.61283 8296 ft 264 kts
2026-04-24 20:04 44.58017 18.61740 9165 ft 267 kts
2026-04-24 20:04 44.59863 18.62208 10010 ft 271 kts
2026-04-24 20:04 44.61722 18.62683 10553 ft 284 kts
2026-04-24 20:05 44.63754 18.63205 10810 ft 308 kts
2026-04-24 20:05 44.65908 18.63762 11314 ft 319 kts
2026-04-24 20:05 44.68115 18.64337 12036 ft 324 kts
2026-04-24 20:05 44.70323 18.64920 12789 ft 328 kts 10°
2026-04-24 20:06 44.72598 18.65524 13537 ft 333 kts 10°
2026-04-24 20:06 44.74888 18.66132 14229 ft 337 kts 10°
2026-04-24 20:06 44.77210 18.66746 14889 ft 341 kts 10°
2026-04-24 20:06 44.79528 18.67357 15527 ft 345 kts 10°
2026-04-24 20:07 44.81129 18.67778 15983 ft 347 kts 10°
2026-04-24 20:07 44.84297 18.68611 16882 ft 352 kts 10°
2026-04-24 20:07 44.86719 18.69250 17538 ft 356 kts 10°
2026-04-24 20:07 44.89167 18.69896 18188 ft 360 kts 10°
2026-04-24 20:08 44.91649 18.70552 18759 ft 364 kts 10°
2026-04-24 20:08 44.94160 18.71220 19341 ft 367 kts 10°
2026-04-24 20:08 44.96685 18.71895 19942 ft 370 kts 10°
2026-04-24 20:08 44.99253 18.72367 20538 ft 373 kts
2026-04-24 20:09 45.01822 18.72153 21118 ft 376 kts 351°
2026-04-24 20:09 45.04390 18.71370 21734 ft 379 kts 348°
2026-04-24 20:09 45.06958 18.70550 22337 ft 381 kts 348°
2026-04-24 20:09 45.09572 18.69724 22913 ft 385 kts 348°
2026-04-24 20:10 45.12201 18.68898 23484 ft 388 kts 348°
2026-04-24 20:10 45.14847 18.68068 23962 ft 391 kts 348°
2026-04-24 20:10 45.17518 18.67231 24443 ft 394 kts 348°
2026-04-24 20:10 45.20203 18.66385 24902 ft 396 kts 348°
2026-04-24 20:11 45.22904 18.65531 25364 ft 399 kts 348°
2026-04-24 20:11 45.25593 18.64683 25806 ft 401 kts 348°
2026-04-24 20:11 45.28297 18.63639 26244 ft 405 kts 342°
2026-04-24 20:11 45.30977 18.62352 26676 ft 407 kts 342°
2026-04-24 20:12 45.33668 18.61062 27106 ft 410 kts 342°
2026-04-24 20:12 45.36382 18.59763 27532 ft 412 kts 342°
2026-04-24 20:12 45.39109 18.58460 27951 ft 415 kts 342°
2026-04-24 20:12 45.41851 18.57150 28375 ft 417 kts 342°
2026-04-24 20:13 45.44620 18.55824 28794 ft 420 kts 342°
2026-04-24 20:13 45.47399 18.54493 29206 ft 422 kts 342°
2026-04-24 20:13 45.50160 18.53169 29600 ft 425 kts 342°
2026-04-24 20:13 45.52970 18.51818 29994 ft 427 kts 342°
2026-04-24 20:14 45.55793 18.50455 30331 ft 430 kts 342°
2026-04-24 20:14 45.58644 18.49077 30668 ft 432 kts 342°
2026-04-24 20:14 45.61496 18.47697 31008 ft 434 kts 342°
2026-04-24 20:14 45.64336 18.46322 31355 ft 435 kts 342°
2026-04-24 20:15 45.67221 18.44926 31720 ft 437 kts 342°
2026-04-24 20:15 45.70098 18.43535 32232 ft 434 kts 343°
2026-04-24 20:15 45.73000 18.42424 32752 ft 430 kts 352°
2026-04-24 20:15 45.75971 18.42008 33249 ft 426 kts
2026-04-24 20:16 45.78878 18.42281 33732 ft 423 kts
2026-04-24 20:16 45.81782 18.42937 34208 ft 421 kts
2026-04-24 20:16 45.84667 18.43586 34628 ft 419 kts
2026-04-24 20:16 45.87555 18.44220 35046 ft 417 kts
2026-04-24 20:17 45.90418 18.44839 35476 ft 415 kts
2026-04-24 20:17 45.96116 18.46081 36283 ft 412 kts
2026-04-24 20:17 45.98916 18.46701 36673 ft 411 kts
2026-04-24 20:18 46.00798 18.47119 36927 ft 410 kts
2026-04-24 20:18 46.04569 18.47958 37429 ft 408 kts
2026-04-24 20:18 46.07353 18.48579 37783 ft 407 kts
2026-04-24 20:18 46.10131 18.49199 38017 ft 407 kts
2026-04-24 20:19 46.15721 18.50459 38043 ft 404 kts
2026-04-24 20:19 46.21274 18.51716 38040 ft 403 kts
2026-04-24 20:20 46.26815 18.52973 38036 ft 403 kts
2026-04-24 20:20 46.32340 18.54219 38035 ft 404 kts
2026-04-24 20:21 46.37895 18.55471 38038 ft 404 kts
2026-04-24 20:21 46.43469 18.56729 38045 ft 405 kts
2026-04-24 20:22 46.49016 18.57977 38055 ft 405 kts
2026-04-24 20:22 46.54609 18.59238 38049 ft 406 kts
2026-04-24 20:23 46.60199 18.60516 38051 ft 406 kts
2026-04-24 20:23 46.65785 18.61795 38051 ft 406 kts
2026-04-24 20:24 46.71343 18.63062 38068 ft 406 kts
2026-04-24 20:24 46.76931 18.64346 38060 ft 405 kts
2026-04-24 20:25 46.82464 18.65610 38057 ft 404 kts
2026-04-24 20:25 46.88031 18.66888 38042 ft 404 kts
2026-04-24 20:26 46.93543 18.68154 38054 ft 403 kts
2026-04-24 20:26 46.99092 18.69436 38052 ft 403 kts
2026-04-24 20:27 47.04612 18.70715 38050 ft 402 kts
2026-04-24 20:27 47.10151 18.71994 38049 ft 402 kts
2026-04-24 20:28 47.15684 18.73260 38046 ft 402 kts
2026-04-24 20:28 47.18435 18.73335 38044 ft 400 kts 353°
2026-04-24 20:28 47.21157 18.72500 38042 ft 400 kts 341°
2026-04-24 20:29 47.25427 18.69808 38039 ft 401 kts 337°
2026-04-24 20:29 47.28601 18.67721 37871 ft 402 kts 337°
2026-04-24 20:29 47.31188 18.66020 36879 ft 410 kts 337°
2026-04-24 20:30 47.32953 18.64859 36362 ft 412 kts 337°
2026-04-24 20:30 47.35525 18.63163 35496 ft 406 kts 337°
2026-04-24 20:30 47.38103 18.61461 34618 ft 403 kts 337°
2026-04-24 20:30 47.40652 18.59770 33733 ft 399 kts 335°
2026-04-24 20:31 47.42987 18.57596 32788 ft 396 kts 324°
2026-04-24 20:31 47.45177 18.55131 31879 ft 393 kts 324°
2026-04-24 20:31 47.47342 18.52694 30992 ft 389 kts 324°
2026-04-24 20:31 47.49460 18.50311 30153 ft 385 kts 323°
2026-04-24 20:32 47.51591 18.47909 29171 ft 381 kts 323°
2026-04-24 20:32 47.53682 18.45549 28217 ft 375 kts 323°
2026-04-24 20:32 47.55709 18.43156 27287 ft 370 kts 317°
2026-04-24 20:32 47.57392 18.40310 26403 ft 366 kts 310°
2026-04-24 20:33 47.58966 18.37380 25542 ft 361 kts 310°
2026-04-24 20:33 47.60505 18.34508 24709 ft 356 kts 309°
2026-04-24 20:33 47.62036 18.31651 23889 ft 351 kts 309°
2026-04-24 20:33 47.63553 18.28827 22975 ft 347 kts 309°
2026-04-24 20:34 47.65046 18.26046 22051 ft 342 kts 310°
2026-04-24 20:34 47.66504 18.23322 21159 ft 338 kts 310°
2026-04-24 20:34 47.67961 18.20602 20283 ft 333 kts 310°
2026-04-24 20:34 47.69394 18.17922 19432 ft 329 kts 310°
2026-04-24 20:35 47.70809 18.15276 18604 ft 324 kts 310°
2026-04-24 20:35 47.72188 18.12694 17724 ft 320 kts 310°
2026-04-24 20:35 47.73567 18.10109 16815 ft 316 kts 310°
2026-04-24 20:35 47.74947 18.07582 15920 ft 310 kts 314°
2026-04-24 20:36 47.76571 18.05524 15069 ft 305 kts 327°
2026-04-24 20:36 47.78398 18.04022 14240 ft 302 kts 332°
2026-04-24 20:36 47.80250 18.02568 13362 ft 298 kts 331°
2026-04-24 20:36 47.82072 18.01125 12457 ft 294 kts 331°
2026-04-24 20:37 47.83863 17.99696 11565 ft 289 kts 331°
2026-04-24 20:37 47.85460 17.97938 10704 ft 285 kts 313°
2026-04-24 20:37 47.86565 17.95531 10078 ft 275 kts 303°
2026-04-24 20:37 47.87533 17.93141 9700 ft 272 kts 303°
2026-04-24 20:38 47.88514 17.90740 9297 ft 270 kts 303°
2026-04-24 20:38 47.89491 17.88352 8915 ft 269 kts 303°
2026-04-24 20:38 47.90463 17.85975 8548 ft 267 kts 302°
2026-04-24 20:38 47.91413 17.83603 8164 ft 265 kts 298°
2026-04-24 20:39 47.91914 17.81064 7776 ft 254 kts 277°
2026-04-24 20:39 47.91844 17.78487 7411 ft 239 kts 270°
2026-04-24 20:39 47.91722 17.76088 7083 ft 225 kts 270°
2026-04-24 20:39 47.91604 17.73755 6752 ft 227 kts 270°
2026-04-24 20:40 47.91488 17.71412 6445 ft 226 kts 270°
2026-04-24 20:40 47.91375 17.69102 6112 ft 226 kts 270°
2026-04-24 20:40 47.91259 17.66769 5770 ft 225 kts 270°
2026-04-24 20:40 47.91142 17.64448 5431 ft 224 kts 270°
2026-04-24 20:41 47.91259 17.62160 5118 ft 220 kts 288°
2026-04-24 20:41 47.91877 17.60106 4787 ft 216 kts 306°
2026-04-24 20:41 47.92869 17.58439 4449 ft 215 kts 315°
2026-04-24 20:41 47.93900 17.56870 4116 ft 214 kts 315°
2026-04-24 20:42 47.94939 17.55281 3795 ft 213 kts 315°
2026-04-24 20:42 47.95979 17.53690 3473 ft 213 kts 315°
2026-04-24 20:42 47.97013 17.52104 3146 ft 212 kts 315°
2026-04-24 20:42 47.98015 17.50567 3005 ft 204 kts 316°
2026-04-24 20:43 47.99001 17.49055 3008 ft 204 kts 316°
2026-04-24 20:43 47.99969 17.47569 3024 ft 194 kts 316°
2026-04-24 20:43 48.00897 17.46143 3010 ft 189 kts 316°
2026-04-24 20:43 48.01809 17.44742 3008 ft 187 kts 316°
2026-04-24 20:44 48.02717 17.43345 3009 ft 186 kts 316°
2026-04-24 20:44 48.03611 17.41971 3010 ft 186 kts 316°
2026-04-24 20:44 48.04515 17.40580 3010 ft 186 kts 316°
2026-04-24 20:44 48.05420 17.39185 3010 ft 186 kts 316°
2026-04-24 20:45 48.06298 17.37832 2988 ft 173 kts 316°
2026-04-24 20:45 48.07097 17.36599 2829 ft 159 kts 316°
2026-04-24 20:45 48.07842 17.35449 2642 ft 148 kts 317°
2026-04-24 20:45 48.08536 17.34379 2467 ft 143 kts 317°
2026-04-24 20:46 48.09229 17.33310 2275 ft 143 kts 317°
2026-04-24 20:46 48.09906 17.32265 2116 ft 136 kts 317°
2026-04-24 20:46 48.10552 17.31266 1920 ft 133 kts 317°
2026-04-24 20:46 48.11191 17.30279 1732 ft 132 kts 317°
2026-04-24 20:47 48.11829 17.29293 1555 ft 132 kts 317°
2026-04-24 20:47 48.12461 17.28316 1387 ft 133 kts 316°
2026-04-24 20:47 48.13105 17.27320 1204 ft 133 kts 315°
2026-04-24 20:47 48.13746 17.26327 1033 ft 133 kts 314°
2026-04-24 20:48 48.14387 17.25335 849 ft 132 kts 314°
2026-04-24 20:48 48.15028 17.24342 682 ft 132 kts 314°
2026-04-24 20:48 48.15667 17.23359 527 ft 132 kts 313°
2026-04-24 20:48 48.16270 17.22410 435 ft 111 kts 314°
2026-04-24 20:49 48.16687 17.21761 441 ft 61 kts 314°
2026-04-24 20:49 48.16911 17.21402 430 ft 38 kts 313°
2026-04-24 20:49 48.17076 17.21148 435 ft 25 kts 313°
2026-04-24 20:49 48.17132 17.21031 430 ft 10 kts 251°
2026-04-24 20:50 48.17085 17.20945 437 ft 11 kts 227°
2026-04-24 20:50 48.17029 17.20857 432 ft 13 kts 226°
2026-04-24 20:50 48.16966 17.20758 438 ft 12 kts 226°
2026-04-24 20:50 48.16901 17.20657 437 ft 14 kts 227°
2026-04-24 20:51 48.16832 17.20547 436 ft 15 kts 226°
2026-04-24 20:51 48.16780 17.20470 434 ft 11 kts 225°
2026-04-24 20:51 48.16727 17.20385 430 ft 11 kts 245°
2026-04-24 20:51 48.16766 17.20283 435 ft 13 kts 315°
2026-04-24 20:52 48.16837 17.20179 432 ft 15 kts 315°
2026-04-24 20:52 48.16909 17.20187 433 ft 13 kts 49°
2026-04-24 20:52 48.16967 17.20281 433 ft 11 kts 46°
2026-04-24 20:52 48.17024 17.20299 432 ft 8 kts 338°
2026-04-24 20:53 48.17039 17.20282 431 ft 2 kts 317°
2026-04-24 20:53 48.17046 17.20274 429 ft 0 kts 319°